Location: Unspecified
(42.0334°N, 93.6656°W)
Time: 00:32:45
(UTC-06:00)

Amateur Radio Satellites - All Passes

Search period start: 21 November 2017 00:02
Search period end: 22 November 2017 00:02
Location: Unspecified, 42.0334°N, 93.6656°W

Satellite Date Start Highest point End Downlink Frequencies (MHz)
Time Altitude Azimuth
PRISM 21 Nov 00:09:10 00:11:34 15° 297° (WNW) 00:13:58 437.425
RS-15 21 Nov 00:18:18 00:27:41 24° 8° (N) 00:36:45 29.354- 29.394
DUCHIFAT 1 21 Nov 00:22:17 00:26:28 70° 101° (ESE) 00:30:36 145.980
ISS 21 Nov 00:23:19 00:25:20 15° 358° (N) 00:27:21 437.550
EO-79 21 Nov 00:29:10 00:33:22 74° 284° (WNW) 00:37:31 145.935-145.965
50 SAT 21 Nov 00:29:58 00:32:50 30° 71° (ENE) 00:35:43 437.505
NANOSAT C BR1 21 Nov 00:32:40 00:36:51 77° 285° (WNW) 00:41:00 145.865
AIST 2D 21 Nov 00:43:04 00:44:45 13° 294° (WNW) 00:46:26 435.315
POLYITAN 1 21 Nov 00:44:30 00:48:33 49° 287° (WNW) 00:52:35 437.675
DX 1 21 Nov 00:46:13 00:50:26 50° 72° (ENE) 00:54:42 434.975-435.025
O/OREOS (USA 219) 21 Nov 00:47:15 00:49:50 15° 261° (W) 00:52:23 437.305
Oscar 19 21 Nov 00:51:45 00:55:37 21° 93° (E) 00:59:27 437.125/150
PCSat 21 Nov 00:55:25 01:00:48 69° 302° (WNW) 01:06:14 145.827
SPROUT 21 Nov 01:01:33 01:04:20 17° 268° (W) 01:07:07 437.525
QB50P2 21 Nov 01:08:16 01:11:43 25° 292° (WNW) 01:15:10 145.880/145.840
MOZHAYETS 4 21 Nov 01:08:35 01:09:26 10° 60° (ENE) 01:10:18
Gurwin Techsat 1B 21 Nov 01:13:58 01:18:18 25° 94° (E) 01:22:34 435.225
BUGSAT 1 21 Nov 01:16:18 01:20:20 67° 101° (E) 01:24:19 437.445
nSIGHT-1 21 Nov 01:17:07 01:19:22 17° 12° (NNE) 01:21:36 .
UKube-1 21 Nov 01:28:54 01:33:13 88° 256° (WSW) 01:37:35 .
VELOX 1 21 Nov 01:39:24 01:40:43 11° 270° (W) 01:42:03 145.980
ISS 21 Nov 02:00:00 02:02:41 23° 19° (NNE) 02:05:21 437.550
DUCHIFAT 1 21 Nov 02:00:20 02:01:31 11° 299° (WNW) 02:02:43 145.980
50 SAT 21 Nov 02:03:24 02:05:01 13° 267° (W) 02:06:38 437.505
BEESAT 3 21 Nov 02:07:39 02:10:46 22° 113° (ESE) 02:13:53 437.485
BEESAT 21 Nov 02:16:53 02:21:22 42° 70° (ENE) 02:25:52 436.000
DX 1 21 Nov 02:24:24 02:26:54 15° 268° (W) 02:29:25 434.975-435.025
ITUPSAT 1 21 Nov 02:26:13 02:30:51 51° 71° (ENE) 02:35:29 437.325
Oscar 19 21 Nov 02:30:12 02:35:09 48° 290° (WNW) 02:40:06 437.125/150
M-CUBED/EXP-1 PRIME 21 Nov 02:31:16 02:35:18 30° 101° (E) 02:39:22 437.505
RS-15 21 Nov 02:32:51 02:44:17 47° 41° (NE) 02:55:06 29.354- 29.394
MOZHAYETS 4 21 Nov 02:41:17 02:45:51 88° 254° (WSW) 02:50:27
PCSat 21 Nov 02:42:26 02:45:14 14° 323° (NW) 02:48:01 145.827
ITAMSAT 1 21 Nov 02:44:38 02:47:12 14° 90° (E) 02:49:44 435.822/435.867
CUBESAT XI-V 21 Nov 02:52:50 02:56:45 28° 68° (ENE) 03:00:42 437.345
nSIGHT-1 21 Nov 02:52:58 02:56:07 55° 31° (NNE) 02:59:15 .
Gurwin Techsat 1B 21 Nov 02:53:22 02:58:23 43° 291° (WNW) 03:03:22 435.225
BUGSAT 1 21 Nov 02:54:07 02:55:06 11° 298° (WNW) 02:56:05 437.445
AO-7 21 Nov 03:08:05 03:15:47 39° 99° (E) 03:23:27 .
BEESAT 2 21 Nov 03:17:48 03:21:28 35° 116° (ESE) 03:25:11 435.950
ISS 21 Nov 03:36:10 03:39:26 74° 217° (SW) 03:42:41 437.550
BEESAT 3 21 Nov 03:44:25 03:48:06 34° 310° (NW) 03:51:48 437.485
BEESAT 21 Nov 03:55:42 03:59:17 21° 266° (W) 04:02:54 436.000
AO-85 21 Nov 04:05:19 04:08:58 41° 117° (ESE) 04:12:46 145.980
M-CUBED/EXP-1 PRIME 21 Nov 04:05:36 04:09:34 31° 296° (WNW) 04:13:36 437.505
ITUPSAT 1 21 Nov 04:05:48 04:08:57 17° 268° (W) 04:12:06 437.325
ITAMSAT 1 21 Nov 04:21:59 04:27:11 74° 287° (WNW) 04:32:21 435.822/435.867
nSIGHT-1 21 Nov 04:29:53 04:32:04 17° 227° (SW) 04:34:15 .
CUBESAT XI-V 21 Nov 04:30:04 04:34:02 29° 264° (W) 04:38:04 437.345
KKS-1 21 Nov 04:34:34 04:39:02 80° 75° (ENE) 04:43:32 437.445
RS-15 21 Nov 04:45:43 04:57:12 61° 246° (WSW) 05:08:06 29.354- 29.394
BEESAT 2 21 Nov 04:55:58 04:59:16 24° 314° (NW) 05:02:36 435.950
STARS 21 Nov 04:59:20 05:03:41 58° 73° (ENE) 05:08:03 437.465
AO-7 21 Nov 05:00:44 05:08:39 49° 297° (WNW) 05:16:34 .
DOVE 4 21 Nov 05:04:11 05:09:20 57° 99° (E) 05:14:11 437.250
XW-2D 21 Nov 05:11:14 05:11:57 10° 90° (E) 05:12:38 145.860 - 145.880
YUBILEINY 21 Nov 05:21:34 05:30:01 57° 90° (E) 05:38:34 435.215
STRAND 1 21 Nov 05:22:46 05:25:21 14° 59° (ENE) 05:27:56 437.568
XW-2B 21 Nov 05:24:39 05:26:54 15° 92° (E) 05:29:08 145.730 - 145.750
SO-50 21 Nov 05:38:44 05:42:37 26° 45° (NE) 05:46:33 436.795
NUDT-PHONESAT 21 Nov 05:40:07 05:42:24 15° 93° (E) 05:44:40 437.300
AO-85 21 Nov 05:46:34 05:49:33 20° 317° (NW) 05:52:39 145.980
XW-2C 21 Nov 05:49:19 05:52:41 30° 97° (E) 05:56:04 145.795 - 145.815
LilacSat-2 21 Nov 05:51:03 05:54:34 34° 97° (E) 05:58:05 437.200
CUTE-I 21 Nov 05:53:17 05:57:58 30° 96° (E) 06:02:36 437.470
XW-2F 21 Nov 05:59:59 06:03:32 37° 98° (E) 06:07:05 145.980 - 146.000
ITAMSAT 1 21 Nov 06:05:00 06:05:43 10° 304° (NW) 06:06:25 435.822/435.867
SEEDS 21 Nov 06:23:32 06:24:30 11° 89° (E) 06:25:28 437.485
KAITUO 1B 21 Nov 06:27:54 06:31:40 66° 102° (ESE) 06:35:24 145.475/437.950
FO-29 21 Nov 06:35:35 06:40:45 23° 57° (ENE) 06:46:18 435.910
STARS 21 Nov 06:38:14 06:40:23 13° 269° (W) 06:42:31 437.465
XW-2D 21 Nov 06:42:41 06:46:25 54° 286° (WNW) 06:50:08 145.860 - 145.880
DOVE 4 21 Nov 06:42:54 06:46:28 19° 298° (WNW) 06:49:56 437.250
CUBEBUG 2 21 Nov 06:46:21 06:49:15 18° 93° (E) 06:52:07 437.445
AO-7 21 Nov 06:56:46 06:59:24 12° 319° (NW) 07:02:05 .
XW-2B 21 Nov 06:57:40 07:01:13 37° 288° (WNW) 07:04:44 145.730 - 145.750
STRAND 1 21 Nov 06:58:41 07:03:50 81° 256° (WSW) 07:09:02 437.568
HO-68 21 Nov 07:02:14 07:09:13 51° 100° (E) 07:16:09 435.675
RS-15 21 Nov 07:03:52 07:06:47 11° 268° (W) 07:09:41 29.354- 29.394
XW-2A 21 Nov 07:04:07 07:05:23 12° 92° (E) 07:06:38 145.665 - 145.685
NUDT-PHONESAT 21 Nov 07:12:58 07:16:21 34° 288° (WNW) 07:19:43 437.300
SO-50 21 Nov 07:18:49 07:23:15 44° 243° (WSW) 07:27:42 436.795
YUBILEINY 21 Nov 07:19:37 07:27:15 33° 291° (WNW) 07:34:59 435.215
XW-2C 21 Nov 07:23:54 07:26:40 19° 292° (WNW) 07:29:25 145.795 - 145.815
CUTE 1.7 + AOD 2 21 Nov 07:25:46 07:30:04 88° 291° (WNW) 07:34:21 437.475
LilacSat-2 21 Nov 07:26:00 07:28:34 17° 293° (WNW) 07:31:09 437.200
CUTE-I 21 Nov 07:33:09 07:38:01 36° 293° (WNW) 07:42:52 437.470
ZACube-1 21 Nov 07:33:40 07:36:30 18° 93° (E) 07:39:21 437.345
XW-2F 21 Nov 07:35:00 07:37:20 16° 294° (WNW) 07:39:40 145.980 - 146.000
UWE-3 21 Nov 07:42:27 07:46:25 42° 98° (E) 07:50:21 435.000/436.395/437.385
SEEDS 21 Nov 07:56:23 08:00:36 66° 285° (WNW) 08:04:49 437.485
PCSat 21 Nov 08:00:27 08:04:16 19° 42° (NE) 08:08:03 145.827
AAUSAT CUBESAT 2 21 Nov 08:03:11 08:07:22 63° 101° (E) 08:11:30 437.432
FO-29 21 Nov 08:18:20 08:24:54 74° 258° (WSW) 08:32:21 435.910
CUBEBUG 2 21 Nov 08:22:10 08:26:00 36° 289° (WNW) 08:29:47 437.445
UNISAT 6 21 Nov 08:23:35 08:27:22 26° 68° (ENE) 08:31:05 437.425
AO-73 21 Nov 08:23:44 08:27:50 58° 101° (E) 08:31:56 145.935
TIGRISAT 21 Nov 08:27:54 08:31:42 27° 68° (ENE) 08:35:27 435.000
XW-2A 21 Nov 08:35:07 08:38:14 36° 287° (WNW) 08:41:21 145.665 - 145.685
Oscar 11 21 Nov 08:40:06 08:44:23 59° 100° (E) 08:48:40 .
HO-68 21 Nov 08:50:26 08:56:39 33° 299° (WNW) 09:02:52 435.675
ZACube-1 21 Nov 09:09:06 09:12:55 37° 289° (WNW) 09:16:45 437.345
UWE-3 21 Nov 09:19:56 09:22:32 16° 295° (WNW) 09:25:07 435.000/436.395/437.385
PRISM 21 Nov 09:21:58 09:25:44 36° 71° (ENE) 09:29:33 437.425
EO-88 21 Nov 09:37:41 09:40:41 24° 96° (E) 09:43:40 145.990 - 145.960
Max Valier Satellite 21 Nov 09:39:10 09:42:35 36° 98° (E) 09:45:59 145.860
AAUSAT CUBESAT 2 21 Nov 09:40:32 09:42:15 12° 297° (WNW) 09:43:59 437.432
PCSat 21 Nov 09:42:52 09:48:18 80° 242° (WSW) 09:53:43 145.827
AIST 2D 21 Nov 09:44:00 09:46:06 15° 67° (ENE) 09:48:13 435.315
UNISAT 6 21 Nov 09:59:53 10:03:56 31° 263° (W) 10:07:57 437.425
AO-73 21 Nov 10:01:44 10:03:34 13° 297° (WNW) 10:05:26 145.935
POLYITAN 1 21 Nov 10:03:59 10:05:42 12° 62° (ENE) 10:07:23 437.675
TIGRISAT 21 Nov 10:04:14 10:08:16 30° 264° (W) 10:12:15 435.000
FALCONSAT 3 21 Nov 10:06:06 10:08:46 19° 163° (SSE) 10:11:27 435.103
DELFI C3 21 Nov 10:08:23 10:12:22 65° 284° (WNW) 10:16:18 145.870
FO-29 21 Nov 10:08:55 10:11:21 12° 278° (W) 10:13:53 435.910
Oscar 11 21 Nov 10:17:51 10:20:01 14° 297° (WNW) 10:22:12 .
BEESAT 3 21 Nov 10:23:32 10:26:17 18° 43° (NE) 10:28:59 437.485
QB50P2 21 Nov 10:25:26 10:28:46 23° 67° (ENE) 10:32:06 145.880/145.840
PRISM 21 Nov 10:58:13 11:01:07 18° 267° (W) 11:04:03 437.425
EO-88 21 Nov 11:11:21 11:14:12 22° 291° (WNW) 11:17:03 145.990 - 145.960
DUCHIFAT 1 21 Nov 11:13:55 11:18:00 52° 73° (ENE) 11:22:06 145.980
Max Valier Satellite 21 Nov 11:13:56 11:16:05 15° 294° (WNW) 11:18:15 145.860
AIST 2D 21 Nov 11:15:56 11:19:01 30° 263° (W) 11:22:07 435.315
EO-79 21 Nov 11:21:16 11:25:31 84° 76° (ENE) 11:29:47 145.935-145.965
NANOSAT C BR1 21 Nov 11:24:26 11:28:39 80° 77° (ENE) 11:32:53 145.865
ESTCUBE 1 21 Nov 11:29:10 11:33:35 49° 99° (E) 11:37:58 437.505/2401.250
PCSat 21 Nov 11:30:20 11:30:46 10° 259° (W) 11:31:12 145.827
LO-87 21 Nov 11:34:35 11:38:09 88° 101° (E) 11:41:40 145.935 - 145.965
BEESAT 2 21 Nov 11:34:50 11:38:17 26° 47° (NE) 11:41:42 435.950
POLYITAN 1 21 Nov 11:36:42 11:40:55 65° 259° (W) 11:45:09 437.675
FALCONSAT 3 21 Nov 11:44:06 11:47:20 29° 179° (S) 11:50:35 435.103
VELOX 1 21 Nov 11:50:48 11:52:44 13° 90° (E) 11:54:38 145.980
BEESAT 3 21 Nov 12:00:15 12:04:06 51° 242° (WSW) 12:07:51 437.485
QB50P2 21 Nov 12:00:34 12:04:22 32° 263° (W) 12:08:11 145.880/145.840
BUGSAT 1 21 Nov 12:05:46 12:09:49 48° 73° (ENE) 12:13:50 437.445
Oscar 19 21 Nov 12:08:47 12:13:17 32° 67° (ENE) 12:17:48 437.125/150
AO-7 21 Nov 12:20:43 12:24:19 14° 43° (NE) 12:27:55 .
AO-85 21 Nov 12:34:52 12:39:22 46° 52° (NE) 12:44:11 145.980
Gurwin Techsat 1B 21 Nov 12:35:12 12:40:08 41° 69° (ENE) 12:45:07 435.225
SPROUT 21 Nov 12:44:40 12:48:57 79° 103° (ESE) 12:53:10 437.525
DUCHIFAT 1 21 Nov 12:51:52 12:53:57 13° 269° (W) 12:56:02 145.980
ESTCUBE 1 21 Nov 13:06:59 13:09:59 18° 296° (WNW) 13:12:59 437.505/2401.250
BEESAT 2 21 Nov 13:12:26 13:16:01 31° 245° (WSW) 13:19:30 435.950
UKube-1 21 Nov 13:16:47 13:19:12 15° 92° (E) 13:21:35 .
M-CUBED/EXP-1 PRIME 21 Nov 13:17:32 13:20:45 32° 64° (ENE) 13:24:12 437.505
50 SAT 21 Nov 13:18:44 13:21:23 23° 96° (E) 13:24:00 437.505
O/OREOS (USA 219) 21 Nov 13:18:47 13:23:18 58° 109° (ESE) 13:27:50 437.305
FALCONSAT 3 21 Nov 13:23:03 13:25:56 22° 194° (SSW) 13:28:49 435.103
VELOX 1 21 Nov 13:25:09 13:29:34 62° 286° (WNW) 13:33:56 145.980
BUGSAT 1 21 Nov 13:43:07 13:45:24 14° 268° (W) 13:47:42 437.445
Oscar 19 21 Nov 13:48:03 13:52:33 31° 264° (W) 13:57:06 437.125/150
ITAMSAT 1 21 Nov 14:02:16 14:06:23 24° 64° (ENE) 14:10:30 435.822/435.867
AO-7 21 Nov 14:07:17 14:15:17 56° 64° (ENE) 14:23:20 .
DX 1 21 Nov 14:09:42 14:14:06 90° 1° (N) 14:18:28 434.975-435.025
NO-84 21 Nov 14:12:04 14:14:36 18° 125° (SE) 14:17:17 435.350 FM
AO-85 21 Nov 14:15:47 14:19:35 24° 247° (WSW) 14:23:35 145.980
Gurwin Techsat 1B 21 Nov 14:15:50 14:20:12 26° 266° (W) 14:24:36 435.225
SPROUT 21 Nov 14:23:37 14:24:10 10° 299° (WNW) 14:24:42 437.525
ITUPSAT 1 21 Nov 14:28:14 14:30:07 12° 90° (E) 14:32:00 437.325
MOZHAYETS 4 21 Nov 14:36:30 14:39:56 21° 93° (E) 14:43:21
50 SAT 21 Nov 14:51:09 14:53:18 17° 292° (WNW) 14:55:27 437.505
UKube-1 21 Nov 14:51:17 14:55:29 51° 288° (WNW) 14:59:40 .
M-CUBED/EXP-1 PRIME 21 Nov 14:52:52 14:55:17 17° 263° (W) 14:57:49 437.505
O/OREOS (USA 219) 21 Nov 15:00:06 15:03:06 17° 307° (NW) 15:06:06 437.305
YUBILEINY 21 Nov 15:31:30 15:38:58 29° 67° (ENE) 15:46:21 435.215
ITAMSAT 1 21 Nov 15:40:32 15:45:33 46° 261° (W) 15:50:34 435.822/435.867
NO-84 21 Nov 15:47:53 15:51:32 56° 324° (NW) 15:55:30 435.350 FM
BEESAT 21 Nov 15:53:41 15:58:29 87° 283° (WNW) 16:03:13 436.000
AO-7 21 Nov 16:01:04 16:08:21 34° 263° (W) 16:15:41 .
ITUPSAT 1 21 Nov 16:03:40 16:08:26 71° 286° (WNW) 16:13:09 437.325
DOVE 4 21 Nov 16:08:59 16:13:55 58° 73° (ENE) 16:19:05 437.250
MOZHAYETS 4 21 Nov 16:12:58 16:17:12 39° 290° (WNW) 16:21:27
CUBESAT XI-V 21 Nov 16:25:06 16:29:46 66° 101° (E) 16:34:27 437.345
KKS-1 21 Nov 16:26:30 16:28:57 14° 91° (E) 16:31:24 437.445
XW-2C 21 Nov 16:31:42 16:34:02 16° 66° (ENE) 16:36:24 145.795 - 145.815
LilacSat-2 21 Nov 16:33:52 16:36:30 18° 67° (ENE) 16:39:09 437.200
XW-2F 21 Nov 16:41:37 16:44:18 19° 68° (ENE) 16:47:00 145.980 - 146.000
RS-15 21 Nov 16:59:29 17:08:13 23° 99° (E) 17:16:54 29.354- 29.394
KAITUO 1B 21 Nov 17:08:06 17:11:20 30° 71° (ENE) 17:14:36 145.475/437.950
CUTE-I 21 Nov 17:15:13 17:20:23 51° 70° (ENE) 17:25:35 437.470
XW-2D 21 Nov 17:23:40 17:27:22 71° 76° (ENE) 17:31:06 145.860 - 145.880
NO-84 21 Nov 17:26:57 17:29:39 17° 344° (NNW) 17:32:27 435.350 FM
YUBILEINY 21 Nov 17:27:41 17:36:24 65° 268° (W) 17:45:04 435.215
HO-68 21 Nov 17:31:16 17:37:49 40° 64° (ENE) 17:44:25 435.675
BEESAT 21 Nov 17:34:28 17:35:28 11° 302° (WNW) 17:36:27 436.000
XW-2B 21 Nov 17:38:30 17:42:13 78° 258° (WSW) 17:45:58 145.730 - 145.750
CUBEBUG 2 21 Nov 17:44:42 17:47:50 19° 66° (ENE) 17:50:56 437.445
DOVE 4 21 Nov 17:48:40 17:51:59 17° 271° (W) 17:55:24 437.250
NUDT-PHONESAT 21 Nov 17:51:28 17:55:06 78° 258° (WSW) 17:58:46 437.300
KKS-1 21 Nov 18:01:28 18:05:50 54° 288° (WNW) 18:10:09 437.445
CUBESAT XI-V 21 Nov 18:04:05 18:06:35 14° 298° (WNW) 18:09:05 437.345
XW-2C 21 Nov 18:04:30 18:07:56 35° 263° (W) 18:11:23 145.795 - 145.815
LilacSat-2 21 Nov 18:07:13 18:10:33 30° 263° (W) 18:13:55 437.200
XW-2F 21 Nov 18:14:59 18:18:13 28° 264° (W) 18:21:28 145.980 - 146.000
CUTE 1.7 + AOD 2 21 Nov 18:18:19 18:22:28 66° 75° (ENE) 18:26:39 437.475
STARS 21 Nov 18:24:14 18:28:38 76° 284° (WNW) 18:32:59 437.465
ZACube-1 21 Nov 18:30:13 18:32:51 16° 65° (ENE) 18:35:29 437.345
UWE-3 21 Nov 18:39:23 18:43:29 37° 71° (ENE) 18:47:29 435.000/436.395/437.385
KAITUO 1B 21 Nov 18:42:52 18:45:22 17° 267° (W) 18:47:53 145.475/437.950
SEEDS 21 Nov 18:47:47 18:51:57 86° 77° (ENE) 18:56:09 437.485
AAUSAT CUBESAT 2 21 Nov 18:53:17 18:57:09 41° 72° (ENE) 19:01:03 437.432
CUTE-I 21 Nov 18:56:41 19:00:42 21° 267° (W) 19:04:44 437.470
XW-2A 21 Nov 19:05:48 19:09:06 67° 76° (ENE) 19:12:24 145.665 - 145.685
NO-84 21 Nov 19:06:11 19:08:22 14° 5° (N) 19:10:36 435.350 FM
RS-15 21 Nov 19:06:38 19:18:59 86° 121° (ESE) 19:31:17 29.354- 29.394
STRAND 1 21 Nov 19:09:04 19:13:41 33° 97° (E) 19:18:15 437.568
HO-68 21 Nov 19:18:45 19:25:28 42° 262° (W) 19:32:14 435.675
AO-73 21 Nov 19:19:11 19:23:18 46° 73° (ENE) 19:27:21 145.935
CUBEBUG 2 21 Nov 19:19:43 19:24:07 45° 261° (W) 19:28:26 437.445
FO-29 21 Nov 19:28:44 19:34:15 20° 87° (E) 19:39:31 435.910
YUBILEINY 21 Nov 19:29:00 19:31:17 11° 288° (WNW) 19:33:34 435.215
nSIGHT-1 21 Nov 19:32:25 19:33:38 12° 130° (SE) 19:34:53 .
Oscar 11 21 Nov 19:34:57 19:39:03 46° 72° (ENE) 19:43:11 .
CUTE 1.7 + AOD 2 21 Nov 19:57:56 19:58:43 10° 271° (W) 19:59:31 437.475
ZACube-1 21 Nov 20:04:36 20:08:47 47° 261° (W) 20:12:54 437.345
ISS 21 Nov 20:16:30 20:19:17 26° 136° (SE) 20:22:05 437.550
UWE-3 21 Nov 20:16:44 20:20:01 20° 266° (W) 20:23:16 435.000/436.395/437.385
EO-88 21 Nov 20:17:06 20:18:28 12° 65° (ENE) 20:19:50 145.990 - 145.960
Max Valier Satellite 21 Nov 20:18:53 20:21:23 18° 68° (ENE) 20:23:53 145.860
AAUSAT CUBESAT 2 21 Nov 20:30:11 20:32:47 16° 268° (W) 20:35:24 437.432
NO-84 21 Nov 20:43:18 20:46:54 26° 26° (NNE) 20:50:32 435.350 FM
STRAND 1 21 Nov 20:48:20 20:52:46 30° 293° (WNW) 20:57:10 437.568
DELFI C3 21 Nov 20:53:17 20:57:12 71° 75° (ENE) 21:01:11 145.870
AO-73 21 Nov 20:57:12 20:59:44 15° 268° (W) 21:02:16 145.935
nSIGHT-1 21 Nov 21:06:13 21:09:26 80° 325° (NW) 21:12:39 .
FO-29 21 Nov 21:12:11 21:20:06 82° 286° (WNW) 21:27:30 435.910
Oscar 11 21 Nov 21:12:50 21:15:26 16° 269° (W) 21:18:01 .
RS-15 21 Nov 21:21:58 21:33:05 37° 327° (NNW) 21:44:03 29.354- 29.394
SO-50 21 Nov 21:33:02 21:37:22 53° 118° (ESE) 21:41:45 436.795
EO-88 21 Nov 21:48:11 21:51:40 47° 261° (W) 21:55:12 145.990 - 145.960
UNISAT 6 21 Nov 21:50:27 21:54:38 50° 100° (E) 21:58:46 437.425
O/OREOS (USA 219) 21 Nov 21:50:32 21:53:04 14° 51° (NE) 21:55:35 437.305
Max Valier Satellite 21 Nov 21:51:45 21:54:58 29° 263° (W) 21:58:13 145.860
ISS 21 Nov 21:52:32 21:55:39 40° 332° (NNW) 21:58:47 437.550
TIGRISAT 21 Nov 21:54:38 21:58:48 51° 100° (E) 22:02:55 435.000
LO-87 21 Nov 22:10:33 22:13:50 34° 72° (ENE) 22:17:09 145.935 - 145.965
NO-84 21 Nov 22:20:21 22:24:36 69° 224° (SW) 22:28:48 435.350 FM
ESTCUBE 1 21 Nov 22:28:48 22:33:04 46° 72° (ENE) 22:37:22 437.505/2401.250
PRISM 21 Nov 22:37:22 22:41:29 56° 101° (E) 22:45:33 437.425
AIST 2D 21 Nov 22:40:30 22:42:55 17° 93° (E) 22:45:19 435.315
nSIGHT-1 21 Nov 22:43:37 22:46:04 20° 344° (NNW) 22:48:31 .
PCSat 21 Nov 22:45:37 22:47:21 11° 102° (ESE) 22:49:06 145.827
VELOX 1 21 Nov 22:48:42 22:50:44 13° 61° (ENE) 22:52:46 145.980
FO-29 21 Nov 22:58:47 23:03:53 19° 306° (NW) 23:08:53 435.910
EO-79 21 Nov 23:07:11 23:09:04 13° 91° (E) 23:10:57 145.935-145.965
NANOSAT C BR1 21 Nov 23:10:10 23:11:47 12° 90° (E) 23:13:25 145.865
SO-50 21 Nov 23:14:40 23:18:07 21° 318° (NW) 23:21:36 436.795
POLYITAN 1 21 Nov 23:21:46 23:24:45 19° 93° (E) 23:27:43 437.675
O/OREOS (USA 219) 21 Nov 23:28:27 23:33:00 68° 249° (WSW) 23:37:27 437.305
UNISAT 6 21 Nov 23:28:28 23:30:55 15° 296° (WNW) 23:33:21 437.425
ISS 21 Nov 23:30:37 23:32:47 16° 352° (N) 23:34:57 437.550
TIGRISAT 21 Nov 23:32:39 23:35:03 15° 296° (WNW) 23:37:26 435.000
SPROUT 21 Nov 23:37:45 23:41:58 61° 75° (ENE) 23:46:13 437.525
QB50P2 21 Nov 23:44:26 23:48:21 37° 98° (E) 23:52:15 145.880/145.840
LO-87 21 Nov 23:45:18 23:47:21 14° 268° (W) 23:49:25 145.935 - 145.965
